Location: Unspecified
(34.4950°S, 58.5160°W)
Time: 13:32:15
(UTC+00:00)

Daily predictions for brighter satellites

Satellite Brightness Start Highest point End
(mag) Time Altitude Azimuth Time Altitude Azimuth Time Altitude Azimuth
OAO 2 Rocket 3.4 23:13:45 10° WNW 23:18:51 71° NNE 23:24:06 10° E
Cosmos 2360 4.2 23:16:02 10° N 23:21:40 66° ENE 23:27:21 10° SSE
Cosmos 1666 4.4 23:18:33 10° NNW 23:22:04 37° W 23:25:39 10° S
Meteor 2-4 Rocket 3.7 23:16:59 10° S 23:22:27 90° WSW 23:27:58 10° N
Timation 1 Rocket 4.5 23:17:34 10° SSW 23:23:36 65° ESE 23:29:34 10° NNE
SL-4 R/B 4.1 23:19:58 10° WNW 23:24:19 36° SW 23:28:28 10° SSE
H-2A R/B 2.5 23:21:05 10° SSE 23:25:01 50° E 23:28:47 10° N
Okean 1-7 4.1 23:23:56 10° SSE 23:27:42 27° ESE 23:31:24 10° NE
Cosmos 2227 Rocket 2.6 23:25:22 10° S 23:30:56 51° ESE 23:36:27 10° NE
DELTA 2 R/B (1) 4.1 23:27:42 10° WSW 23:33:18 60° SSE 23:38:53 10° E
Meteor 1-11 Rocket 3.9 23:28:28 10° N 23:34:18 64° E 23:40:17 10° SSE
Cosmos 2112 Rocket 4.1 23:32:29 10° SSW 23:37:46 71° ESE 23:43:01 10° NNE
SEDSat Delta rocket 4.1 23:34:55 10° NW 23:39:20 34° NNE 23:44:23 10° E
S3M 4.1 23:36:26 10° S 23:42:36 80° W 23:48:44 10° N
Cosmos 1937 Rocket 4.4 23:37:34 10° NNW 23:42:41 53° WSW 23:47:50 10° S
YAOGAN 1 2.8 23:38:36 10° S 23:42:59 78° WSW 23:47:20 10° NNW
Cosmos 1655 Rocket 4.5 23:39:01 10° NNW 23:45:15 66° W 23:51:33 10° S
CSL-04 Rocket 4.2 23:41:13 10° SSE 23:46:27 39° E 23:51:35 10° NNE
ERS-2 4.1 23:46:41 11° E 23:48:32 15° ESE 23:50:46 10° SSE
Cosmos 2084 4.0 23:44:24 10° N 23:48:54 44° ENE 23:53:26 10° SE
JB-3 4.2 23:47:44 10° NNE 23:51:35 76° ESE 23:55:30 10° S
Cosmos 1689 Rocket 2.7 23:49:39 10° N 23:52:15 47° W 23:54:54 10° SSW
Cosmos 372 Rocket 4.4 23:47:46 10° NNW 23:52:59 70° WSW 23:58:15 10° SSE
